Stations météo

réclame
Mon MeteoGroup
Harsfjarden, Suède (2489): Température de l'air & dewpoint: 08.08.2020 06:00:00 - 14.08.2020 06:00:00 (CEST)Harsfjarden, Suède (2489): Vitesse du vent & gusts: 08.08.2020 06:00:00 - 14.08.2020 06:00:00 (CEST)Harsfjarden, Suède (2489): Direction du vent: 08.08.2020 06:00:00 - 14.08.2020 06:00:00 (CEST)Harsfjarden, Suède (2489): reduced air pressure: 08.08.2020 06:00:00 - 14.08.2020 06:00:00 (CEST)Harsfjarden, Suède (2489): visibility: 08.08.2020 06:00:00 - 14.08.2020 06:00:00 (CEST)Harsfjarden, Suède (2489): Quantités de précipitations: 08.08.2020 06:00:00 - 14.08.2020 06:00:00 (CEST)
Date & Time tt [°C] td [°C] ff [km/h] ff [knt] fx [km/h] fx [knt] dd ppp [hPa] vv [km] rr [mm]
14.08.2020 06:00:00 - - - - - - - - - -
14.08.2020 05:00:00 18,0 17,7 11 6 18 10 S 1015,7 30 0,0
14.08.2020 04:00:00 17,6 17,4 7 4 14 8 SE 1016,1 30 0,0
14.08.2020 03:00:00 17,6 17,4 11 6 14 8 SSE 1016,4 35 0,0
14.08.2020 02:00:00 17,6 17,4 7 4 14 8 SSE 1016,7 35 0,0
14.08.2020 01:00:00 17,5 17,3 11 6 14 8 SSE 1017,0 30 0,0
14.08.2020 00:00:00 17,4 17,1 7 4 11 6 SE 1017,0 35 0,0
13.08.2020 23:00:00 17,3 17,0 7 4 14 8 SE 1017,0 30 0,0
13.08.2020 22:00:00 17,5 17,2 7 4 11 6 SE 1017,3 30 0,0
13.08.2020 21:00:00 17,4 17,1 7 4 14 8 SE 1017,3 27 0,0
13.08.2020 20:00:00 17,8 17,2 11 6 14 8 SE 1017,1 45 0,0
13.08.2020 19:00:00 18,4 16,9 11 6 18 10 SE 1017,0 40 0,0
13.08.2020 18:00:00 19,0 17,0 11 6 22 12 SE 1017,1 40 0,0
13.08.2020 17:00:00 20,0 16,6 14 8 18 10 SE 1017,1 25 0,0
13.08.2020 16:00:00 20,2 17,0 14 8 18 10 SE 1017,2 45 0,0
13.08.2020 15:00:00 21,3 17,5 11 6 22 12 SE 1017,2 35 0,0
13.08.2020 14:00:00 21,6 18,0 14 8 22 12 SE 1017,4 35 0,0
13.08.2020 13:00:00 23,1 18,0 14 8 18 10 SSE 1017,2 40 0,0
13.08.2020 12:00:00 22,0 16,7 11 6 18 10 SE 1016,9 45 0,0
13.08.2020 11:00:00 22,3 17,4 7 4 14 8 SE 1016,9 35 0,0
13.08.2020 10:00:00 22,1 16,4 7 4 18 10 ENE 1016,7 28 0,0
13.08.2020 09:00:00 20,2 15,9 7 4 18 10 N 1016,7 35 0,0
13.08.2020 08:00:00 19,6 15,7 7 4 18 10 N 1016,6 45 0,0
13.08.2020 07:00:00 17,9 14,6 11 6 18 10 WNW 1016,7 45 0,0
13.08.2020 06:00:00 12,9 12,0 0 0 4 2 N 1016,9 45 0,0
13.08.2020 05:00:00 13,2 11,9 4 2 4 2 N 1017,1 50 0,0
13.08.2020 04:00:00 14,7 12,4 0 0 7 4 N 1017,5 50 0,0
13.08.2020 03:00:00 15,4 13,1 7 4 7 4 W 1017,8 50 0,0
13.08.2020 02:00:00 15,2 13,4 4 2 7 4 WSW 1018,2 45 0,0
13.08.2020 01:00:00 15,8 13,5 7 4 11 6 WSW 1018,7 50 0,0
13.08.2020 00:00:00 16,8 13,1 7 4 11 6 WSW 1018,9 50 0,0
12.08.2020 23:00:00 16,6 12,7 7 4 14 8 WSW 1018,9 50 0,0
12.08.2020 22:00:00 16,4 12,6 7 4 18 10 WSW 1019,4 45 0,0
12.08.2020 21:00:00 17,6 11,9 11 6 22 12 SW 1019,9 50 0,0
12.08.2020 20:00:00 19,0 12,5 14 8 22 12 SW 1020,1 50 0,0
12.08.2020 19:00:00 20,3 14,4 14 8 25 14 SSW 1020,4 45 0,0
12.08.2020 18:00:00 20,7 14,4 18 10 25 14 SSW 1021,0 45 0,0
12.08.2020 17:00:00 20,4 15,6 18 10 25 14 S 1021,4 45 0,0
12.08.2020 16:00:00 21,0 15,5 14 8 25 14 S 1021,9 40 0,0
12.08.2020 15:00:00 20,9 15,8 18 10 25 14 S 1022,4 45 0,0
12.08.2020 14:00:00 19,3 15,4 18 10 25 14 S 1023,0 45 0,0
12.08.2020 13:00:00 21,3 15,6 18 10 25 14 S 1023,6 45 0,0
12.08.2020 12:00:00 21,1 15,2 14 8 22 12 S 1023,9 40 0,0
12.08.2020 11:00:00 20,3 15,1 11 6 18 10 S 1024,3 40 0,0
12.08.2020 10:00:00 20,4 13,8 11 6 14 8 S 1024,6 45 0,0
12.08.2020 09:00:00 20,1 14,1 7 4 14 8 SSW 1024,7 45 0,0
12.08.2020 08:00:00 16,7 13,4 4 2 4 2 ESE 1025,1 45 0,0
12.08.2020 07:00:00 11,8 10,7 0 0 4 2 N 1025,6 45 0,0
12.08.2020 06:00:00 8,7 8,6 4 2 4 2 N 1025,8 50 0,0
12.08.2020 05:00:00 8,2 8,1 4 2 4 2 N 1025,9 45 0,0
12.08.2020 04:00:00 8,5 8,4 4 2 4 2 N 1026,2 45 0,0
12.08.2020 03:00:00 8,9 8,8 4 2 4 2 N 1026,3 45 0,0
12.08.2020 02:00:00 9,5 9,4 4 2 7 4 N 1026,3 45 0,0
12.08.2020 01:00:00 10,2 9,9 4 2 4 2 N 1026,2 50 0,0
12.08.2020 00:00:00 10,8 10,3 4 2 4 2 N 1026,3 45 0,0
11.08.2020 23:00:00 11,9 11,1 4 2 4 2 N 1026,1 45 0,0
11.08.2020 22:00:00 13,0 11,7 4 2 4 2 N 1026,0 45 0,0
11.08.2020 21:00:00 14,8 11,9 0 0 11 6 N 1026,0 50 0,0
11.08.2020 20:00:00 17,4 12,9 7 4 14 8 SSE 1025,9 50 0,0
11.08.2020 19:00:00 18,2 13,1 7 4 18 10 SSE 1026,0 45 0,0
11.08.2020 18:00:00 18,5 13,4 11 6 18 10 SE 1026,1 45 0,0
11.08.2020 17:00:00 19,2 13,4 14 8 18 10 SE 1026,2 45 0,0
11.08.2020 16:00:00 19,4 12,9 14 8 22 12 SE 1026,4 45 0,0
11.08.2020 15:00:00 19,8 12,6 14 8 22 12 SE 1026,6 40 0,0
11.08.2020 14:00:00 20,0 12,2 11 6 18 10 SE 1026,8 45 0,0
11.08.2020 13:00:00 20,5 13,2 7 4 18 10 ESE 1026,8 45 0,0
11.08.2020 12:00:00 21,5 13,7 7 4 25 14 ESE 1026,5 40 0,0
11.08.2020 11:00:00 20,5 13,5 14 8 25 14 NE 1026,5 45 0,0
11.08.2020 10:00:00 19,3 14,3 14 8 25 14 N 1026,4 45 0,0
11.08.2020 09:00:00 17,4 13,9 14 8 22 12 N 1026,4 40 0,0
11.08.2020 08:00:00 15,7 13,4 11 6 18 10 N 1026,3 45 0,0
11.08.2020 07:00:00 13,8 11,8 7 4 14 8 NNW 1026,5 45 0,0
11.08.2020 06:00:00 11,0 10,4 7 4 14 8 NNW 1026,7 45 0,0
11.08.2020 05:00:00 10,4 9,8 11 6 14 8 NNW 1026,3 45 0,0
11.08.2020 04:00:00 10,8 10,1 11 6 14 8 NNW 1026,3 45 0,0
11.08.2020 03:00:00 8,6 8,0 7 4 11 6 NNW 1026,2 50 0,0
11.08.2020 02:00:00 9,3 8,7 4 2 7 4 N 1026,4 45 0,0
11.08.2020 01:00:00 9,8 8,7 7 4 7 4 N 1026,2 50 0,0
11.08.2020 00:00:00 11,0 9,6 4 2 7 4 N 1025,9 50 0,0
10.08.2020 23:00:00 12,2 10,1 4 2 4 2 N 1025,6 50 0,0
10.08.2020 22:00:00 13,6 10,9 4 2 7 4 N 1025,3 50 0,0
10.08.2020 21:00:00 16,1 11,7 4 2 11 6 NE 1025,1 50 0,0
10.08.2020 20:00:00 18,3 12,5 4 2 14 8 ENE 1024,8 45 0,0
10.08.2020 19:00:00 19,3 12,1 4 2 14 8 E 1024,6 45 0,0
10.08.2020 18:00:00 20,1 12,3 4 2 18 10 SE 1024,3 45 0,0
10.08.2020 17:00:00 20,0 11,7 14 8 22 12 SE 1024,4 45 0,0
10.08.2020 16:00:00 20,8 12,5 14 8 18 10 SE 1024,4 45 0,0
10.08.2020 15:00:00 21,2 12,9 14 8 18 10 SE 1024,6 40 0,0
10.08.2020 14:00:00 21,1 12,2 14 8 22 12 SE 1024,9 40 0,0
10.08.2020 13:00:00 20,9 12,1 14 8 22 12 SE 1024,9 35 0,0
10.08.2020 12:00:00 20,9 12,3 11 6 18 10 ESE 1025,0 25 0,0
10.08.2020 11:00:00 21,0 10,8 7 4 25 14 ENE 1024,9 35 0,0
10.08.2020 10:00:00 20,0 11,2 11 6 22 12 NE 1024,8 40 0,0
10.08.2020 09:00:00 18,5 12,5 11 6 22 12 NNE 1024,7 45 0,0
10.08.2020 08:00:00 17,6 12,3 11 6 18 10 NNE 1024,6 35 0,0
10.08.2020 07:00:00 15,7 12,3 11 6 18 10 N 1024,5 45 0,0
10.08.2020 06:00:00 13,8 11,3 11 6 14 8 NNW 1024,3 45 0,0
10.08.2020 05:00:00 13,3 11,0 11 6 14 8 N 1024,2 50 0,0
10.08.2020 04:00:00 13,0 10,9 7 4 14 8 N 1024,1 45 0,0
10.08.2020 03:00:00 12,6 10,7 7 4 7 4 N 1024,0 45 0,0
10.08.2020 02:00:00 12,3 10,4 4 2 7 4 N 1024,1 50 0,0
10.08.2020 01:00:00 13,3 10,1 0 0 7 4 N 1024,2 50 0,0
10.08.2020 00:00:00 15,4 10,2 4 2 11 6 N 1023,9 50 0,0
09.08.2020 23:00:00 15,9 10,2 4 2 14 8 NNE 1023,6 50 0,0
09.08.2020 22:00:00 17,0 10,8 7 4 18 10 NNE 1023,4 50 0,0
09.08.2020 21:00:00 18,3 13,8 11 6 14 8 NE 1022,9 45 0,0
09.08.2020 20:00:00 19,1 16,1 7 4 14 8 ENE 1022,2 45 0,0
09.08.2020 19:00:00 20,1 16,3 7 4 18 10 ENE 1021,9 45 0,0
09.08.2020 18:00:00 20,5 16,1 11 6 18 10 E 1022,0 45 0,0
09.08.2020 17:00:00 21,0 16,8 4 2 22 12 ESE 1021,8 45 0,0
09.08.2020 16:00:00 21,8 17,0 11 6 22 12 E 1021,7 35 0,0
09.08.2020 15:00:00 22,5 17,4 11 6 22 12 E 1021,7 45 0,0
09.08.2020 14:00:00 22,1 17,9 11 6 18 10 ESE 1021,7 45 0,0
09.08.2020 13:00:00 22,9 18,4 11 6 18 10 SE 1021,7 45 0,0
09.08.2020 12:00:00 22,5 18,5 11 6 18 10 SE 1021,8 40 0,0
09.08.2020 11:00:00 23,2 18,1 7 4 18 10 SE 1021,6 40 0,0
09.08.2020 10:00:00 22,6 18,6 7 4 11 6 SE 1021,3 40 0,0
09.08.2020 09:00:00 21,2 18,9 4 2 11 6 SE 1020,8 40 0,0
09.08.2020 08:00:00 19,8 18,1 0 0 7 4 N 1020,8 40 0,0
09.08.2020 07:00:00 18,0 17,4 0 0 0 0 N 1020,6 30 0,0
09.08.2020 06:00:00 14,5 14,5 0 0 0 0 N 1020,4 26 0,0
09.08.2020 05:00:00 14,1 14,1 0 0 4 2 N 1020,4 19 0,0
09.08.2020 04:00:00 14,4 14,4 0 0 4 2 N 1020,4 15 0,0
09.08.2020 03:00:00 15,1 15,1 0 0 0 0 N 1020,5 20 0,0
09.08.2020 02:00:00 15,8 15,8 0 0 0 0 N 1020,5 19 0,0
09.08.2020 01:00:00 16,1 16,1 0 0 0 0 N 1020,7 20 0,0
09.08.2020 00:00:00 16,7 16,7 0 0 0 0 N 1020,8 20 0,0
08.08.2020 23:00:00 17,3 17,1 0 0 0 0 N 1020,8 29 0,0
08.08.2020 22:00:00 18,5 17,8 0 0 7 4 N 1021,1 26 0,0
08.08.2020 21:00:00 19,7 18,4 4 2 7 4 S 1021,2 45 0,0
08.08.2020 20:00:00 20,7 18,5 0 0 7 4 N 1021,3 40 0,0
08.08.2020 19:00:00 21,7 17,9 4 2 14 8 SSW 1021,6 45 0,0
08.08.2020 18:00:00 22,1 17,9 7 4 14 8 S 1021,9 45 0,0
08.08.2020 17:00:00 24,0 17,3 7 4 14 8 S 1022,1 45 0,0
08.08.2020 16:00:00 24,6 17,3 7 4 18 10 S 1022,7 45 0,0
08.08.2020 15:00:00 24,8 17,3 11 6 14 8 S 1023,1 35 0,0
08.08.2020 14:00:00 25,1 17,3 11 6 14 8 S 1023,5 40 0,0
08.08.2020 13:00:00 27,0 15,7 7 4 14 8 S 1023,8 40 0,0
08.08.2020 12:00:00 25,3 15,3 7 4 14 8 S 1024,0 45 0,0
08.08.2020 11:00:00 25,5 16,1 11 6 14 8 S 1024,5 35 0,0
08.08.2020 10:00:00 23,0 15,8 7 4 11 6 SSE 1024,7 45 0,0
08.08.2020 09:00:00 21,5 16,0 7 4 11 6 SSE 1025,0 45 0,0
08.08.2020 08:00:00 20,3 16,5 7 4 14 8 SSE 1025,3 45 0,0
08.08.2020 07:00:00 19,0 16,6 7 4 11 6 S 1025,4 45 0,0
08.08.2020 06:00:00 14,9 14,9 0 0 7 4 N 1025,5 40 0,0

tt = Température de l'air
td = dewpoint
ff = Vitesse du vent
fx = gusts
dd = Direction du vent
ppp = reduced air pressure
vv = visibility
rr = Quantités de précipitations

stations d'obs. à proximité